TimePDT,TemperatureF,Dew PointF,Humidity,Sea Level PressureIn,VisibilityMPH,Wind Direction,Wind SpeedMPH,Gust SpeedMPH,PrecipitationIn,Events,Conditions,WindDirDegrees,DateUTC
12:00 AM,44.6,37.4,76,30.02,9.0,Calm,Calm,-,N/A,,Clear,0,2013-04-01 07:00:00
1:00 AM,44.6,37.4,76,30.03,9.0,South,3.5,-,N/A,,Clear,170,2013-04-01 08:00:00
2:00 AM,42,37,75,30.04,9,Calm,Calm,,,,,,2013-04-01 09:00:00
2:00 AM,42.8,37.4,81,30.04,9.0,Calm,Calm,-,N/A,,Clear,0,2013-04-01 09:00:00
4:00 AM,39.2,35.6,87,30.05,9.0,Calm,Calm,-,N/A,,Clear,0,2013-04-01 11:00:00
5:00 AM,39,36,84,30.06,9,SE,2.3,,,,,140,2013-04-01 12:00:00
5:00 AM,39.2,35.6,87,30.06,9.0,Calm,Calm,-,N/A,,Clear,0,2013-04-01 12:00:00
6:00 AM,37.4,35.6,93,30.06,9.0,SSE,2.3,-,N/A,,Clear,150,2013-04-01 13:00:00
7:00 AM,35.6,35.6,100,30.08,9.0,Calm,Calm,-,N/A,,Clear,0,2013-04-01 14:00:00
8:00 AM,36,35,94,30.08,9,South,2.3,,,,,170,2013-04-01 15:00:00
8:00 AM,35.6,35.6,100,30.08,9.0,SSE,3.5,-,N/A,,Clear,160,2013-04-01 15:00:00
9:00 AM,39.2,37.4,93,30.08,9.0,SSE,4.6,-,N/A,,Clear,160,2013-04-01 16:00:00
10:00 AM,46.4,37.4,71,30.06,9.0,South,2.3,-,N/A,,Clear,180,2013-04-01 17:00:00
11:00 AM,53,36,42,30.04,9,Calm,Calm,,,,,,2013-04-01 18:00:00
11:00 AM,53.6,37.4,54,30.04,9.0,Calm,Calm,-,N/A,,Clear,0,2013-04-01 18:00:00
12:00 PM,59.0,37.4,45,30.01,9.0,South,3.5,-,N/A,,Clear,180,2013-04-01 19:00:00
1:00 PM,60.8,37.4,42,29.97,9.0,NNE,2.3,-,N/A,,Clear,20,2013-04-01 20:00:00
2:00 PM,65,39,27,29.93,9,North,3.5,,,,,350,2013-04-01 21:00:00
2:00 PM,64.4,39.2,40,29.93,9.0,North,4.6,-,N/A,,Clear,350,2013-04-01 21:00:00
3:00 PM,73.4,39.2,29,29.88,9.0,South,19.6,25.3,N/A,,Clear,190,2013-04-01 22:00:00
4:00 PM,73.4,37.4,27,29.87,9.0,South,20.7,32.2,N/A,,Clear,190,2013-04-01 23:00:00
5:00 PM,73,36,16,29.87,9,South,21.9,,,,,190,2013-04-02 00:00:00
5:00 PM,73.4,35.6,25,29.87,9.0,South,20.7,32.2,N/A,,Clear,190,2013-04-02 00:00:00
6:00 PM,69.8,35.6,28,29.88,9.0,SSW,18.4,32.2,N/A,,Clear,200,2013-04-02 01:00:00
7:00 PM,66.2,37.4,35,29.91,9.0,SSW,17.3,23.0,N/A,,Clear,210,2013-04-02 02:00:00
8:00 PM,64,38,26,29.93,9,SSW,18.4,,,,,210,2013-04-02 03:00:00
8:00 PM,64.4,37.4,37,29.93,9.0,SSW,16.1,28.8,N/A,,Clear,210,2013-04-02 03:00:00
9:00 PM,62.6,39.2,42,29.96,9.0,SSW,17.3,28.8,N/A,,Clear,200,2013-04-02 04:00:00
10:00 PM,59.0,39.2,48,29.97,9.0,SSW,18.4,28.8,N/A,,Clear,200,2013-04-02 05:00:00
11:00 PM,58,39,38,29.99,9,South,19.6,,,,,190,2013-04-02 06:00:00
11:00 PM,59.0,39.2,48,29.99,9.0,South,15.0,34.5,N/A,,Clear,190,2013-04-02 06:00:00